Date String (YYYY-MM-DD hh:mm:ss) UTC,Instrument flags,absolute air pressure of the measurement (hPa),sample flow rate (lpm),inlet stack bypass flow (lpm),air temperature of the measurement (°C),ambient temperature measured by the external sensor (°C),aerosol sample conditioner tube jacket temperature (°C),OPC LED temperature (°C),internal box temperature (°C),relative humidity of the measurement (%),span deviation,mass concentration of particles derived from Lorenz-Mie calculation of OPC scattering (μg/m³),mass concentration of particles derived from Lorenz-Mie calculation of OPC scattering (μg/m³),mass concentration of particles derived from Lorenz-Mie calculation of OPC scattering (μg/m³)
DateTimeUTC,F1_M11,P_M11,Q1_M11,Q2_M11,T1_M11,T2_M11,T3_M11,T4_M11,T5_M11,U1_M11,ZSPAN_M11,X0_M11,X2_M11,X1_M11
2024-05-23 06:00:00,SystemResetWarning,0822.5,4.99,000.00,030.1,029.2,000.0,038.5,031.7,010.2,0000.0,0009.94,0003.31,0002.36
2024-05-23 06:01:00,SystemResetWarning,0822.6,5.00,000.00,030.1,029.2,000.0,038.5,031.8,010.1,0000.0,0009.95,0003.29,0002.34
2024-05-23 06:02:00,SystemResetWarning,0822.6,5.01,000.00,030.1,029.2,000.0,038.5,031.8,010.1,0000.0,0010.64,0003.33,0002.34
2024-05-23 06:03:00,SystemResetWarning,0822.5,5.01,000.00,030.1,029.2,000.0,038.5,031.7,010.1,0000.0,0010.57,0003.35,0002.33
2024-05-23 06:04:00,SystemResetWarning,0823.1,5.00,000.00,030.1,029.2,000.0,038.5,031.7,010.2,0000.0,0010.17,0003.34,0002.33
2024-05-23 06:05:00,SystemResetWarning,0823.1,5.00,000.00,030.0,029.2,000.0,038.4,031.7,010.2,0000.0,0010.14,0003.32,0002.33
2024-05-23 06:06:00,SystemResetWarning,0823.1,4.99,000.00,030.0,029.2,000.0,038.4,031.7,010.2,0000.0,0010.18,0003.32,0002.32
2024-05-23 06:07:00,SystemResetWarning,0823.1,5.00,000.00,030.0,029.2,000.0,038.4,031.7,010.1,0000.0,0009.84,0003.32,0002.33
2024-05-23 06:08:00,SystemResetWarning,0822.9,5.02,000.00,030.0,029.2,000.0,038.4,031.7,010.2,0000.0,0009.86,0003.32,0002.33
2024-05-23 06:09:00,SystemResetWarning,0822.7,5.00,000.00,030.0,029.2,000.0,038.4,031.7,010.2,0000.0,0009.29,0003.29,0002.32
2024-05-23 06:10:00,SystemResetWarning,0822.5,4.98,000.00,030.0,029.2,000.0,038.4,031.7,010.2,0000.0,0008.62,0003.28,0002.33
2024-05-23 06:11:00,SystemResetWarning,0822.5,5.01,000.00,030.0,029.1,000.0,038.4,031.7,010.1,0000.0,0008.38,0003.25,0002.34
2024-05-23 06:12:00,SystemResetWarning,0822.5,5.01,000.00,030.0,029.1,000.0,038.4,031.6,010.1,0000.0,0008.51,0003.23,0002.33
2024-05-23 06:13:00,SystemResetWarning,0822.4,5.00,000.00,030.0,029.1,000.0,038.4,031.6,010.0,0000.0,0008.08,0003.21,0002.33
2024-05-23 06:14:00,SystemResetWarning,0822.4,5.00,000.00,030.0,029.1,000.0,038.4,031.6,010.0,0000.0,0007.59,0003.22,0002.35
2024-05-23 06:15:00,SystemResetWarning,0822.4,5.00,000.00,030.0,029.1,000.0,038.4,031.6,010.1,0000.0,0007.57,0003.20,0002.34
2024-05-23 06:16:00,SystemResetWarning,0822.4,5.01,000.00,030.0,029.1,000.0,038.4,031.6,010.1,0000.0,0007.44,0003.17,0002.32
2024-05-23 06:17:00,SystemResetWarning,0822.4,5.00,000.00,030.0,029.1,000.0,038.4,031.6,010.1,0000.0,0007.42,0003.18,0002.33
2024-05-23 06:18:00,SystemResetWarning,0822.4,5.00,000.00,029.9,029.1,000.0,038.4,031.6,010.0,0000.0,0007.83,0003.18,0002.32
2024-05-23 06:19:00,SystemResetWarning,0822.3,5.00,000.00,029.9,029.1,000.0,038.4,031.6,009.9,0000.0,0008.15,0003.18,0002.30
2024-05-23 06:20:00,SystemResetWarning,0822.4,5.00,000.00,029.9,029.1,000.0,038.3,031.6,009.9,0000.0,0007.72,0003.18,0002.30
2024-05-23 06:21:00,SystemResetWarning,0822.4,5.01,000.00,029.9,029.1,000.0,038.3,031.6,010.0,0000.0,0007.86,0003.20,0002.30
2024-05-23 06:22:00,SystemResetWarning,0822.4,5.01,000.00,029.9,029.1,000.0,038.3,031.6,010.1,0000.0,0007.86,0003.20,0002.30
2024-05-23 06:23:00,SystemResetWarning,0822.4,5.00,000.00,029.9,029.1,000.0,038.3,031.6,010.2,0000.0,0007.48,0003.19,0002.29
2024-05-23 06:24:00,SystemResetWarning,0822.3,5.00,000.00,029.9,029.0,000.0,038.3,031.6,010.2,0000.0,0007.52,0003.20,0002.31
2024-05-23 06:25:00,SystemResetWarning,0822.3,5.00,000.00,029.9,029.0,000.0,038.3,031.5,010.3,0000.0,0007.55,0003.17,0002.30
2024-05-23 06:26:00,SystemResetWarning,0822.3,4.98,000.00,029.9,029.0,000.0,038.3,031.5,010.4,0000.0,0007.55,0003.20,0002.32
2024-05-23 06:27:00,SystemResetWarning,0822.3,5.00,000.00,029.9,029.0,000.0,038.3,031.5,010.4,0000.0,0007.69,0003.25,0002.33
2024-05-23 06:28:00,SystemResetWarning,0822.2,5.01,000.00,029.9,029.0,000.0,038.3,031.5,010.3,0000.0,0007.81,0003.26,0002.33
2024-05-23 06:29:00,SystemResetWarning,0822.2,5.00,000.00,029.9,029.0,000.0,038.3,031.5,010.3,0000.0,0007.61,0003.27,0002.33
2024-05-23 06:30:00,SystemResetWarning,0822.2,4.99,000.00,029.9,029.0,000.0,038.3,031.5,010.2,0000.0,0007.57,0003.26,0002.34
2024-05-23 06:31:00,SystemResetWarning,0822.2,4.99,000.00,029.8,029.0,000.0,038.3,031.5,010.2,0000.0,0007.65,0003.26,0002.33
2024-05-23 06:32:00,SystemResetWarning,0822.2,4.99,000.00,029.8,029.0,000.0,038.3,031.5,010.1,0000.0,0007.61,0003.25,0002.34
2024-05-23 06:33:00,SystemResetWarning,0822.2,5.00,000.00,029.8,029.0,000.0,038.2,031.5,010.2,0000.0,0007.46,0003.26,0002.34
2024-05-23 06:34:00,SystemResetWarning,0822.2,5.00,000.00,029.8,029.0,000.0,038.2,031.5,010.2,0000.0,0007.52,0003.28,0002.35
2024-05-23 06:35:00,SystemResetWarning,0822.2,5.00,000.00,029.8,029.0,000.0,038.2,031.5,010.3,0000.0,0007.56,0003.28,0002.33
2024-05-23 06:36:00,SystemResetWarning,0822.2,5.00,000.00,029.8,028.9,000.0,038.2,031.5,010.2,0000.0,0007.51,0003.29,0002.33
2024-05-23 06:37:00,SystemResetWarning,0822.2,5.00,000.00,029.8,028.9,000.0,038.2,031.5,010.2,0000.0,0007.80,0003.27,0002.33
2024-05-23 06:38:00,SystemResetWarning,0822.2,5.01,000.00,029.8,028.9,000.0,038.2,031.4,010.3,0000.0,0007.79,0003.24,0002.32
2024-05-23 06:39:00,SystemResetWarning,0822.2,5.00,000.00,029.8,028.9,000.0,038.2,031.4,010.4,0000.0,0007.69,0003.23,0002.32
2024-05-23 06:40:00,SystemResetWarning,0822.1,5.00,000.00,029.8,028.9,000.0,038.2,031.4,010.3,0000.0,0008.01,0003.22,0002.30
2024-05-23 06:41:00,SystemResetWarning,0822.1,5.00,000.00,029.8,028.9,000.0,038.2,031.4,010.3,0000.0,0007.70,0003.22,0002.30
2024-05-23 06:42:00,SystemResetWarning,0822.1,4.99,000.00,029.8,028.9,000.0,038.2,031.4,010.3,0000.0,0007.71,0003.25,0002.30
2024-05-23 06:43:00,SystemResetWarning,0822.1,4.99,000.00,029.8,028.9,000.0,038.2,031.4,010.1,0000.0,0007.62,0003.26,0002.30
2024-05-23 06:44:00,SystemResetWarning,0822.1,5.00,000.00,029.7,028.9,000.0,038.2,031.4,009.9,0000.0,0007.59,0003.23,0002.29
2024-05-23 06:45:00,SystemResetWarning,0822.1,5.02,000.00,029.8,028.9,000.0,038.2,031.4,010.0,0000.0,0007.75,0003.26,0002.27
2024-05-23 06:46:00,SystemResetWarning,0822.1,4.98,000.00,029.7,028.9,000.0,038.1,031.4,010.1,0000.0,0008.48,0003.25,0002.25
2024-05-23 06:47:00,SystemResetWarning,0822.0,4.99,000.00,029.7,028.9,000.0,038.1,031.4,010.1,0000.0,0009.26,0003.23,0002.25
2024-05-23 06:48:00,SystemResetWarning,0822.0,5.03,000.00,029.7,028.9,000.0,038.1,031.4,010.1,0000.0,0009.35,0003.23,0002.24
2024-05-23 06:49:00,SystemResetWarning,0822.1,4.98,000.00,029.7,028.9,000.0,038.1,031.4,010.2,0000.0,0009.70,0003.22,0002.24
2024-05-23 06:50:00,SystemResetWarning,0822.0,4.98,000.00,029.7,028.9,000.0,038.1,031.4,010.2,0000.0,0009.60,0003.19,0002.24
2024-05-23 06:51:00,SystemResetWarning,0822.0,5.01,000.00,029.7,028.9,000.0,038.1,031.4,010.2,0000.0,0009.14,0003.17,0002.23
2024-05-23 06:52:00,SystemResetWarning,0822.0,5.02,000.00,029.7,028.8,000.0,038.1,031.4,010.3,0000.0,0008.91,0003.17,0002.24
2024-05-23 06:53:00,SystemResetWarning,0822.0,4.99,000.00,029.7,028.8,000.0,038.1,031.4,010.3,0000.0,0008.73,0003.14,0002.23
2024-05-23 06:54:00,SystemResetWarning,0822.0,4.99,000.00,029.7,028.8,000.0,038.1,031.4,010.3,0000.0,0008.73,0003.14,0002.23
2024-05-23 06:55:00,SystemResetWarning,0822.0,5.00,000.00,029.7,028.8,000.0,038.1,031.4,010.3,0000.0,0009.00,0003.16,0002.23
2024-05-23 06:56:00,SystemResetWarning,0821.9,5.00,000.00,029.7,028.8,000.0,038.1,031.3,010.2,0000.0,0008.94,0003.14,0002.25
2024-05-23 06:57:00,SystemResetWarning,0822.0,5.00,000.00,029.7,028.8,000.0,038.1,031.3,010.2,0000.0,0008.24,0003.14,0002.28
2024-05-23 06:58:00,SystemResetWarning,0821.9,5.00,000.00,029.7,028.8,000.0,038.1,031.3,010.2,0000.0,0007.40,0003.14,0002.28
2024-05-23 06:59:00,SystemResetWarning,0821.9,4.99,000.00,029.7,028.8,000.0,038.1,031.3,010.2,0000.0,0007.36,0003.13,0002.28
